| time (UTC) | temp C | wind direction | speed KPH | gust KPH | rain 1hr cm | rain 24hr cm | rain mn cm | humidity % | barometer mb |
| 20260504191008 | 9 | 255 | 17.7 | 30.6 | 0.00 | 0.00 | 0.00 | 44 | 1014.3 |
| 20260504190504 | 9 | 268 | 16.1 | 30.6 | 0.00 | 0.00 | 0.00 | 45 | 1014.3 |
| 20260504190010 | 10 | 262 | 14.5 | 30.6 | 0.00 | 0.00 | 0.00 | 43 | 1014.3 |
| 20260504185505 | 10 | 285 | 17.7 | 30.6 | 0.00 | 0.00 | 0.00 | 42 | 1014.5 |
| 20260504185004 | 10 | 255 | 16.1 | 27.4 | 0.00 | 0.00 | 0.00 | 42 | 1014.4 |
| 20260504184514 | 10 | 265 | 14.5 | 27.4 | 0.00 | 0.00 | 0.00 | 43 | 1014.7 |
| 20260504184010 | 11 | 252 | 12.9 | 29.0 | 0.00 | 0.00 | 0.00 | 42 | 1014.8 |
| 20260504183509 | 10 | 302 | 16.1 | 29.0 | 0.00 | 0.00 | 0.00 | 43 | 1014.8 |
| 20260504183020 | 10 | 242 | 17.7 | 25.7 | 0.00 | 0.00 | 0.00 | 42 | 1014.9 |
| 20260504182508 | 10 | 342 | 8.0 | 29.0 | 0.00 | 0.00 | 0.00 | 45 | 1014.9 |
| 20260504182011 | 10 | 259 | 14.5 | 29.0 | 0.00 | 0.00 | 0.00 | 45 | 1015.0 |
| 20260504181523 | 10 | 249 | 16.1 | 27.4 | 0.00 | 0.00 | 0.00 | 41 | 1015.2 |
| 20260504181010 | 11 | 269 | 14.5 | 30.6 | 0.00 | 0.00 | 0.00 | 43 | 1015.2 |
| 20260504180512 | 10 | 309 | 9.7 | 33.8 | 0.00 | 0.00 | 0.00 | 45 | 1015.2 |
| 20260504180028 | 10 | 256 | 14.5 | 33.8 | 0.00 | 0.00 | 0.00 | 44 | 1015.3 |
| 20260504175507 | 9 | 233 | 20.9 | 33.8 | 0.00 | 0.00 | 0.00 | 46 | 1015.3 |
| 20260504175004 | 8 | 304 | 16.1 | 32.2 | 0.00 | 0.00 | 0.00 | 48 | 1015.5 |
| 20260504174511 | 8 | 279 | 22.5 | 32.2 | 0.00 | 0.00 | 0.00 | 46 | 1015.5 |
| 20260504174007 | 9 | 265 | 17.7 | 33.8 | 0.00 | 0.00 | 0.00 | 47 | 1015.5 |
| 20260504173506 | 8 | 332 | 19.3 | 33.8 | 0.00 | 0.00 | 0.00 | 48 | 1015.7 |
| 20260504173016 | 8 | 266 | 19.3 | 32.2 | 0.00 | 0.00 | 0.00 | 50 | 1015.8 |
| 20260504172506 | 8 | 274 | 14.5 | 29.0 | 0.00 | 0.00 | 0.00 | 49 | 1015.8 |
| 20260504172010 | 8 | 245 | 20.9 | 29.0 | 0.00 | 0.00 | 0.00 | 49 | 1016.0 |
| 20260504171535 | 8 | 261 | 19.3 | 35.4 | 0.00 | 0.00 | 0.00 | 48 | 1015.9 |
| 20260504171008 | 8 | 258 | 17.7 | 35.4 | 0.00 | 0.00 | 0.00 | 51 | 1015.7 |
| 20260504170511 | 8 | 243 | 22.5 | 29.0 | 0.00 | 0.00 | 0.00 | 48 | 1015.8 |
| 20260504151007 | 6 | 248 | 3.2 | 9.7 | 0.00 | 0.00 | 0.00 | 50 | 1016.6 |
| 20260504150508 | 6 | 285 | 3.2 | 8.0 | 0.00 | 0.00 | 0.00 | 49 | 1016.6 |
| 20260504141006 | 3 | 236 | 1.6 | 9.7 | 0.00 | 0.00 | 0.00 | 56 | 1016.6 |
| 20260504140508 | 3 | 70 | 4.8 | 9.7 | 0.00 | 0.00 | 0.00 | 53 | 1016.6 |
| 20260504130507 | 1 | 69 | 1.6 | 3.2 | 0.00 | 0.00 | 0.00 | 58 | 1016.6 |
| 20260504110504 | 0 | 232 | 3.2 | 6.4 | 0.00 | 0.00 | 0.00 | 58 | 1016.0 |
| 20260504100506 | 1 | 246 | 1.6 | 3.2 | 0.00 | 0.00 | 0.00 | 52 | 1015.7 |
| 20260504082005 | 2 | 173 | 0.0 | 0.0 | 0.00 | 0.00 | 0.00 | 52 | 1016.3 |
| 20260504081522 | 2 | 173 | 0.0 | 0.0 | 0.00 | 0.00 | 0.00 | 52 | 1016.4 |
| 20260504081007 | 2 | 173 | 0.0 | 0.0 | 0.00 | 0.00 | 0.00 | 52 | 1016.5 |
| 20260504080507 | 2 | 173 | 0.0 | 1.6 | 0.00 | 0.00 | 0.00 | 53 | 1016.6 |
| 20260504050509 | 6 | 96 | 9.7 | 11.3 | 0.00 | 0.00 | 0.00 | 46 | 1017.7 |
| 20260504045503 | 6 | 113 | 3.2 | 8.0 | 0.00 | 0.00 | 0.00 | 40 | 1017.6 |
| 20260504045003 | 7 | 122 | 3.2 | 8.0 | 0.00 | 0.00 | 0.00 | 40 | 1017.7 |
| 20260504044521 | 7 | 169 | 0.0 | 3.2 | 0.00 | 0.00 | 0.00 | 30 | 1017.8 |
| 20260504044006 | 7 | 291 | 1.6 | 3.2 | 0.00 | 0.00 | 0.00 | 26 | 1017.8 |
| 20260504043504 | 7 | 222 | 0.0 | 3.2 | 0.00 | 0.00 | 0.00 | 26 | 1017.8 |
| 20260504043017 | 7 | 226 | 0.0 | 3.2 | 0.00 | 0.00 | 0.00 | 26 | 1017.8 |
| 20260504042508 | 7 | 235 | 0.0 | 3.2 | 0.00 | 0.00 | 0.00 | 25 | 1017.8 |
| 20260504042005 | 7 | 189 | 0.0 | 4.8 | 0.00 | 0.00 | 0.00 | 26 | 1017.8 |
| 20260504041520 | 8 | 221 | 0.0 | 4.8 | 0.00 | 0.00 | 0.00 | 25 | 1017.8 |
| 20260504041008 | 8 | 280 | 1.6 | 8.0 | 0.00 | 0.00 | 0.00 | 24 | 1017.8 |
| 20260504040511 | 8 | 257 | 3.2 | 8.0 | 0.00 | 0.00 | 0.00 | 24 | 1017.8 |
| 20260504040025 | 8 | 255 | 4.8 | 8.0 | 0.00 | 0.00 | 0.00 | 23 | 1017.9 |
| 20260504035509 | 8 | 276 | 4.8 | 6.4 | 0.00 | 0.00 | 0.00 | 24 | 1017.9 |
| 20260504035011 | 8 | 285 | 3.2 | 6.4 | 0.00 | 0.00 | 0.00 | 24 | 1017.8 |
| 20260504034528 | 8 | 269 | 1.6 | 6.4 | 0.00 | 0.00 | 0.00 | 24 | 1017.8 |
| 20260504034004 | 8 | 267 | 4.8 | 11.3 | 0.00 | 0.00 | 0.00 | 24 | 1017.9 |
| 20260504033503 | 8 | 259 | 6.4 | 11.3 | 0.00 | 0.00 | 0.00 | 23 | 1017.8 |
| 20260504033013 | 8 | 262 | 4.8 | 9.7 | 0.00 | 0.00 | 0.00 | 23 | 1017.8 |
| 20260504032507 | 8 | 248 | 6.4 | 8.0 | 0.00 | 0.00 | 0.00 | 24 | 1017.8 |
| 20260504032010 | 8 | 250 | 3.2 | 11.3 | 0.00 | 0.00 | 0.00 | 24 | 1017.8 |
| 20260504031518 | 8 | 264 | 3.2 | 11.3 | 0.00 | 0.00 | 0.00 | 23 | 1017.8 |
| 20260504031006 | 8 | 250 | 6.4 | 11.3 | 0.00 | 0.00 | 0.00 | 23 | 1017.7 |
| 20260504030507 | 8 | 335 | 6.4 | 12.9 | 0.00 | 0.00 | 0.00 | 23 | 1017.7 |
| 20260504030035 | 8 | 295 | 6.4 | 14.5 | 0.00 | 0.00 | 0.00 | 23 | 1017.7 |
| 20260504025507 | 8 | 257 | 8.0 | 14.5 | 0.00 | 0.00 | 0.00 | 24 | 1017.6 |
| 20260504025009 | 9 | 280 | 8.0 | 17.7 | 0.00 | 0.00 | 0.00 | 25 | 1017.6 |
| 20260504024523 | 8 | 300 | 11.3 | 27.4 | 0.00 | 0.00 | 0.00 | 25 | 1017.6 |
| 20260504024007 | 8 | 262 | 11.3 | 27.4 | 0.00 | 0.00 | 0.00 | 25 | 1017.6 |
| 20260504023506 | 8 | 285 | 6.4 | 14.5 | 0.00 | 0.00 | 0.00 | 28 | 1017.6 |
| 20260504023026 | 8 | 249 | 6.4 | 20.9 | 0.00 | 0.00 | 0.00 | 31 | 1017.6 |
| 20260504022505 | 8 | 270 | 8.0 | 22.5 | 0.00 | 0.00 | 0.00 | 31 | 1017.5 |
| 20260504022007 | 8 | 255 | 16.1 | 27.4 | 0.00 | 0.00 | 0.00 | 29 | 1017.6 |
| 20260504021512 | 9 | 279 | 14.5 | 27.4 | 0.00 | 0.00 | 0.00 | 33 | 1017.5 |
| 20260504021006 | 8 | 232 | 9.7 | 20.9 | 0.00 | 0.00 | 0.00 | 33 | 1017.6 |
| 20260504020506 | 9 | 189 | 11.3 | 22.5 | 0.00 | 0.00 | 0.00 | 34 | 1017.6 |
| 20260504020019 | 10 | 233 | 16.1 | 22.5 | 0.00 | 0.00 | 0.00 | 25 | 1017.6 |
| 20260504015507 | 10 | 284 | 14.5 | 32.2 | 0.00 | 0.00 | 0.00 | 25 | 1017.5 |
| 20260504015007 | 10 | 274 | 20.9 | 32.2 | 0.00 | 0.00 | 0.00 | 25 | 1017.5 |
| 20260504014519 | 10 | 248 | 16.1 | 29.0 | 0.00 | 0.00 | 0.00 | 26 | 1017.5 |
| 20260504014011 | 10 | 271 | 16.1 | 25.7 | 0.00 | 0.00 | 0.00 | 25 | 1017.5 |
| 20260504013508 | 10 | 244 | 17.7 | 27.4 | 0.00 | 0.00 | 0.00 | 25 | 1017.5 |
| 20260504013022 | 10 | 277 | 16.1 | 38.6 | 0.00 | 0.00 | 0.00 | 25 | 1017.5 |
| 20260504012512 | 10 | 225 | 12.9 | 38.6 | 0.00 | 0.00 | 0.00 | 26 | 1017.5 |
| 20260504012017 | 10 | 274 | 17.7 | 33.8 | 0.00 | 0.00 | 0.00 | 27 | 1017.5 |
| 20260504011528 | 10 | 278 | 17.7 | 30.6 | 0.00 | 0.00 | 0.00 | 27 | 1017.6 |
| 20260504011005 | 10 | 266 | 17.7 | 30.6 | 0.00 | 0.00 | 0.00 | 31 | 1017.7 |
| 20260504010503 | 10 | 265 | 16.1 | 27.4 | 0.00 | 0.00 | 0.00 | 30 | 1017.7 |
| 20260504010014 | 10 | 261 | 14.5 | 20.9 | 0.00 | 0.00 | 0.00 | 31 | 1017.6 |
| 20260504005507 | 10 | 270 | 9.7 | 24.1 | 0.00 | 0.00 | 0.00 | 31 | 1017.6 |
| 20260504005008 | 10 | 276 | 14.5 | 24.1 | 0.00 | 0.00 | 0.00 | 32 | 1017.8 |
| 20260504004522 | 10 | 267 | 14.5 | 27.4 | 0.00 | 0.00 | 0.00 | 31 | 1017.8 |
| 20260504004011 | 10 | 259 | 16.1 | 27.4 | 0.00 | 0.00 | 0.00 | 31 | 1017.8 |
| 20260504003509 | 10 | 244 | 16.1 | 24.1 | 0.00 | 0.00 | 0.00 | 32 | 1017.8 |
| 20260504003021 | 10 | 243 | 12.9 | 19.3 | 0.00 | 0.00 | 0.00 | 33 | 1017.9 |
| 20260504002507 | 10 | 231 | 12.9 | 22.5 | 0.00 | 0.00 | 0.00 | 32 | 1018.0 |
| 20260504002007 | 10 | 280 | 14.5 | 22.5 | 0.00 | 0.00 | 0.00 | 33 | 1018.1 |
| 20260504001526 | 10 | 253 | 14.5 | 35.4 | 0.00 | 0.00 | 0.00 | 32 | 1018.1 |
| 20260504001013 | 10 | 255 | 24.1 | 35.4 | 0.00 | 0.00 | 0.00 | 31 | 1018.2 |
| 20260504000510 | 10 | 252 | 16.1 | 24.1 | 0.00 | 0.00 | 0.00 | 32 | 1018.3 |
| 20260504000027 | 10 | 265 | 12.9 | 27.4 | 0.00 | 0.00 | 0.00 | 33 | 1018.2 |
| 20260503235507 | 10 | 250 | 16.1 | 30.6 | 0.00 | 0.00 | 0.00 | 33 | 1018.2 |
| 20260503235004 | 10 | 266 | 19.3 | 43.5 | 0.00 | 0.00 | 0.00 | 33 | 1018.4 |
| 20260503234526 | 9 | 291 | 22.5 | 43.5 | 0.00 | 0.00 | 0.00 | 36 | 1018.5 |
| 20260503234008 | 9 | 259 | 27.4 | 37.0 | 0.00 | 0.00 | 0.00 | 35 | 1018.4 |
| 20260503233509 | 8 | 273 | 16.1 | 48.3 | 0.00 | 0.00 | 0.00 | 38 | 1018.6 |
| 20260503233018 | 8 | 262 | 27.4 | 56.3 | 0.00 | 0.00 | 0.00 | 36 | 1018.7 |
| 20260503232508 | 9 | 284 | 35.4 | 56.3 | 0.00 | 0.00 | 0.00 | 38 | 1018.7 |
| 20260503232007 | 9 | 270 | 19.3 | 30.6 | 0.00 | 0.00 | 0.00 | 36 | 1018.8 |
| 20260503231521 | 9 | 259 | 22.5 | 30.6 | 0.00 | 0.00 | 0.00 | 35 | 1018.8 |
| 20260503231015 | 9 | 253 | 14.5 | 25.7 | 0.00 | 0.00 | 0.00 | 37 | 1018.7 |
| 20260503230512 | 8 | 277 | 19.3 | 25.7 | 0.00 | 0.00 | 0.00 | 38 | 1018.6 |
| 20260503230029 | 8 | 268 | 12.9 | 27.4 | 0.00 | 0.00 | 0.00 | 41 | 1018.8 |
| 20260503225507 | 8 | 207 | 16.1 | 35.4 | 0.00 | 0.00 | 0.00 | 44 | 1018.7 |
| 20260503225012 | 7 | 228 | 24.1 | 41.8 | 0.00 | 0.00 | 0.00 | 45 | 1018.8 |
| 20260503224528 | 8 | 208 | 22.5 | 46.7 | 0.00 | 0.00 | 0.00 | 45 | 1018.9 |
| 20260503224008 | 8 | 240 | 33.8 | 56.3 | 0.00 | 0.00 | 0.00 | 43 | 1018.8 |
| 20260503223505 | 8 | 260 | 30.6 | 56.3 | 0.00 | 0.00 | 0.00 | 41 | 1018.8 |
| 20260503223016 | 8 | 241 | 38.6 | 57.9 | 0.00 | 0.00 | 0.00 | 39 | 1018.7 |
| 20260503222508 | 9 | 260 | 37.0 | 59.5 | 0.00 | 0.00 | 0.00 | 34 | 1018.6 |
| 20260503222008 | 10 | 255 | 40.2 | 59.5 | 0.00 | 0.00 | 0.00 | 30 | 1018.2 |
| 20260503221523 | 11 | 269 | 33.8 | 51.5 | 0.00 | 0.00 | 0.00 | 26 | 1018.2 |
| 20260503221015 | 11 | 253 | 24.1 | 38.6 | 0.00 | 0.00 | 0.00 | 27 | 1018.2 |
| 20260503220508 | 12 | 258 | 19.3 | 37.0 | 0.00 | 0.00 | 0.00 | 29 | 1018.2 |
| 20260503220039 | 12 | 260 | 24.1 | 37.0 | 0.00 | 0.00 | 0.00 | 28 | 1018.2 |
| 20260503215509 | 12 | 247 | 29.0 | 41.8 | 0.00 | 0.00 | 0.00 | 26 | 1018.2 |
| 20260503215007 | 12 | 255 | 17.7 | 45.1 | 0.00 | 0.00 | 0.00 | 25 | 1018.2 |
| 20260503214529 | 12 | 269 | 17.7 | 45.1 | 0.00 | 0.00 | 0.00 | 27 | 1018.4 |
| 20260503214009 | 12 | 249 | 25.7 | 48.3 | 0.00 | 0.00 | 0.00 | 25 | 1018.4 |
| 20260503213509 | 12 | 242 | 24.1 | 48.3 | 0.00 | 0.00 | 0.00 | 26 | 1018.4 |
| 20260503213026 | 12 | 267 | 30.6 | 49.9 | 0.00 | 0.00 | 0.00 | 26 | 1018.7 |
| 20260503212509 | 12 | 246 | 33.8 | 49.9 | 0.00 | 0.00 | 0.00 | 25 | 1018.8 |
| 20260503212008 | 11 | 275 | 20.9 | 49.9 | 0.00 | 0.00 | 0.00 | 26 | 1018.8 |
| 20260503211516 | 11 | 245 | 19.3 | 37.0 | 0.00 | 0.00 | 0.00 | 29 | 1018.7 |
| 20260503211008 | 11 | 255 | 16.1 | 40.2 | 0.00 | 0.00 | 0.00 | 27 | 1018.8 |
| 20260503210508 | 11 | 241 | 29.0 | 45.1 | 0.00 | 0.00 | 0.00 | 28 | 1018.9 |
| 20260503210022 | 11 | 239 | 30.6 | 45.1 | 0.00 | 0.00 | 0.00 | 27 | 1018.8 |
| 20260503205508 | 12 | 240 | 22.5 | 41.8 | 0.00 | 0.00 | 0.00 | 27 | 1018.9 |
| 20260503205009 | 11 | 264 | 22.5 | 38.6 | 0.00 | 0.00 | 0.00 | 27 | 1019.1 |
| 20260503204526 | 12 | 245 | 22.5 | 40.2 | 0.00 | 0.00 | 0.00 | 26 | 1019.3 |
| 20260503204014 | 12 | 262 | 19.3 | 40.2 | 0.00 | 0.00 | 0.00 | 27 | 1019.3 |
| 20260503203509 | 12 | 245 | 11.3 | 38.6 | 0.00 | 0.00 | 0.00 | 27 | 1019.2 |
| 20260503203031 | 11 | 227 | 19.3 | 41.8 | 0.00 | 0.00 | 0.00 | 29 | 1019.3 |
| 20260503202511 | 11 | 266 | 19.3 | 41.8 | 0.00 | 0.00 | 0.00 | 30 | 1019.5 |
| 20260503202013 | 11 | 280 | 14.5 | 37.0 | 0.00 | 0.00 | 0.00 | 28 | 1019.6 |
| 20260503201526 | 10 | 277 | 27.4 | 41.8 | 0.00 | 0.00 | 0.00 | 28 | 1019.6 |
| 20260503201011 | 11 | 243 | 27.4 | 41.8 | 0.00 | 0.00 | 0.00 | 27 | 1019.6 |
| 20260503200510 | 12 | 261 | 20.9 | 45.1 | 0.00 | 0.00 | 0.00 | 28 | 1019.5 |
| 20260503200020 | 11 | 249 | 30.6 | 45.1 | 0.00 | 0.00 | 0.00 | 26 | 1019.6 |
| 20260503195510 | 11 | 244 | 17.7 | 32.2 | 0.00 | 0.00 | 0.00 | 26 | 1019.5 |
| 20260503195009 | 11 | 257 | 11.3 | 38.6 | 0.00 | 0.00 | 0.00 | 26 | 1019.5 |
| 20260503194524 | 11 | 262 | 20.9 | 38.6 | 0.00 | 0.00 | 0.00 | 25 | 1019.6 |
| 20260503194004 | 11 | 253 | 32.2 | 38.6 | 0.00 | 0.00 | 0.00 | 25 | 1019.5 |
| 20260503193506 | 11 | 344 | 22.5 | 37.0 | 0.00 | 0.00 | 0.00 | 23 | 1019.7 |
| 20260503193008 | 11 | 302 | 11.3 | 35.4 | 0.00 | 0.00 | 0.00 | 25 | 1019.6 |
| 20260503192503 | 12 | 217 | 16.1 | 27.4 | 0.00 | 0.00 | 0.00 | 22 | 1019.7 |
| 20260503192006 | 11 | 276 | 16.1 | 27.4 | 0.00 | 0.00 | 0.00 | 23 | 1019.8 |
| 20260503191514 | 11 | 276 | 16.1 | 45.1 | 0.00 | 0.00 | 0.00 | 23 | 1019.9 |